DW9240 Weather Reports


Display with metric or nautical units.
time (UTC)temp
F
wind
direction
speed
MPH
gust
MPH
rain 1hr
in
rain 24hr
in
rain mn
in
humidity
%
barometer
mb
20260506014004 68 255 6.0 14.0 0.00 0.31 0.15 31 1008.8
20260506013504 69 238 7.0 15.0 0.00 0.32 0.15 30 1008.8
20260506013008 69 255 8.0 15.0 0.00 0.32 0.15 28 1008.7
20260506012504 69 223 9.0 17.0 0.00 0.33 0.15 28 1008.6
20260506012010 69 248 11.0 17.0 0.00 0.33 0.15 28 1008.6
20260506011517 70 244 7.0 19.0 0.00 0.33 0.15 28 1008.6
20260506011005 70 259 11.0 21.0 0.00 0.33 0.15 29 1008.6
20260506010502 70 256 8.0 21.0 0.00 0.33 0.15 30 1008.6
20260506010004 70 252 6.0 19.0 0.00 0.33 0.15 30 1008.5
20260506005502 69 261 11.0 19.0 0.00 0.33 0.15 30 1008.5
20260506005004 70 269 9.0 20.0 0.00 0.33 0.15 31 1008.4
20260506004503 70 271 9.0 20.0 0.00 0.33 0.15 31 1008.4
20260506004003 71 237 10.0 26.0 0.00 0.33 0.15 31 1008.3
20260506003503 71 246 8.0 26.0 0.00 0.33 0.15 30 1008.3
20260506003005 71 259 12.0 22.0 0.00 0.33 0.15 30 1008.2
20260506002504 71 221 11.0 22.0 0.00 0.33 0.15 30 1008.2
20260506002007 72 242 9.0 18.0 0.00 0.33 0.15 29 1008.1
20260506001513 72 263 7.0 21.0 0.00 0.33 0.15 30 1008.0
20260506001005 71 265 12.0 21.0 0.00 0.33 0.15 30 1008.1
20260506000509 72 234 10.0 20.0 0.00 0.33 0.15 29 1008.1
20260506000018 72 232 7.0 19.0 0.00 0.33 0.15 29 1008.0
20260505235502 72 246 12.0 19.0 0.00 0.33 0.15 30 1008.0
20260505235003 71 244 8.0 22.0 0.00 0.33 0.15 32 1007.8
20260505234504 72 269 11.0 22.0 0.00 0.33 0.15 31 1007.8
20260505234004 72 262 8.0 25.0 0.00 0.33 0.15 31 1007.8
20260505233503 72 243 9.0 25.0 0.00 0.33 0.15 29 1007.8
20260505233020 72 264 8.0 18.0 0.00 0.33 0.15 30 1007.8
20260505232503 71 269 8.0 21.0 0.00 0.33 0.15 32 1007.8
20260505232004 71 264 10.0 21.0 0.00 0.33 0.15 31 1007.8
20260505231512 73 255 11.0 20.0 0.00 0.33 0.15 31 1007.8
20260505231008 73 269 8.0 22.0 0.00 0.33 0.15 31 1007.8
20260505230505 72 232 10.0 22.0 0.00 0.33 0.15 31 1007.8
20260505230020 73 270 11.0 20.0 0.00 0.33 0.15 30 1007.7
20260505225508 73 271 10.0 18.0 0.00 0.33 0.15 30 1007.7
20260505225008 73 232 9.0 21.0 0.00 0.33 0.15 29 1007.9
20260505224527 72 260 7.0 21.0 0.00 0.33 0.15 30 1008.0
20260505224002 72 254 13.0 20.0 0.00 0.33 0.15 30 1008.1
20260505223503 72 259 4.0 19.0 0.00 0.33 0.15 31 1008.0
20260505223009 73 219 10.0 19.0 0.00 0.33 0.15 31 1008.3
20260505222503 71 235 7.0 18.0 0.00 0.33 0.15 33 1008.1
20260505222004 72 257 7.0 20.0 0.00 0.33 0.15 31 1008.3
20260505221507 73 271 10.0 20.0 0.00 0.33 0.15 31 1008.4
20260505221006 72 267 10.0 20.0 0.00 0.33 0.15 31 1008.2
20260505220504 73 226 7.0 20.0 0.00 0.33 0.15 31 1008.4
20260505220013 72 254 6.0 20.0 0.00 0.33 0.15 32 1008.4
20260505215505 72 228 7.0 20.0 0.00 0.33 0.15 32 1008.5
20260505215006 73 214 10.0 20.0 0.00 0.33 0.15 33 1008.8
20260505214521 72 262 4.0 20.0 0.00 0.33 0.15 32 1008.6
20260505214007 72 269 8.0 17.0 0.00 0.33 0.15 33 1008.6
20260505213512 71 281 6.0 14.0 0.00 0.33 0.15 34 1008.7
20260505213004 72 242 1.0 14.0 0.00 0.33 0.15 34 1008.7
20260505212504 73 264 6.0 20.0 0.00 0.33 0.15 36 1008.7
20260505212003 72 246 9.0 20.0 0.00 0.33 0.15 34 1008.7
20260505211508 72 257 7.0 18.0 0.00 0.33 0.15 36 1008.8
20260505211005 71 262 8.0 18.0 0.00 0.33 0.15 37 1008.9
20260505210503 71 239 11.0 20.0 0.00 0.33 0.15 39 1009.0
20260505210014 71 263 13.0 20.0 0.00 0.33 0.15 42 1009.1
20260505205509 72 291 9.0 17.0 0.00 0.33 0.15 42 1009.1
20260505205009 71 288 8.0 17.0 0.00 0.33 0.15 43 1009.0
20260505204523 71 263 9.0 16.0 0.00 0.33 0.15 44 1009.1
20260505204006 71 304 7.0 20.0 0.00 0.33 0.15 46 1009.2
20260505203508 70 280 7.0 20.0 0.00 0.33 0.15 46 1009.1
20260505203023 69 237 8.0 17.0 0.00 0.33 0.15 49 1009.3
20260505202507 69 270 7.0 19.0 0.00 0.33 0.15 51 1009.1
20260505202003 69 248 7.0 20.0 0.00 0.33 0.15 51 1009.2
20260505201505 69 253 8.0 20.0 0.00 0.33 0.15 50 1009.3
20260505201004 69 276 4.0 14.0 0.00 0.33 0.15 50 1009.4
20260505200503 69 247 5.0 12.0 0.00 0.33 0.15 51 1009.3
20260505200021 68 243 2.0 12.0 0.00 0.33 0.15 49 1009.5
20260505195504 70 219 5.0 12.0 0.00 0.33 0.15 50 1009.5
20260505195008 69 236 5.0 14.0 0.00 0.33 0.15 50 1009.5
20260505194513 69 221 4.0 14.0 0.00 0.33 0.15 51 1009.7
20260505194009 68 234 5.0 13.0 0.00 0.33 0.15 54 1009.6
20260505193508 67 281 5.0 13.0 0.00 0.33 0.15 52 1009.6
20260505193023 69 232 2.0 9.0 0.00 0.33 0.15 55 1009.6
20260505192510 67 261 4.0 11.0 0.00 0.33 0.15 57 1009.8
20260505192007 67 267 6.0 11.0 0.00 0.33 0.15 56 1009.8
20260505191524 67 273 2.0 11.0 0.00 0.33 0.15 58 1009.8
20260505191011 67 273 5.0 11.0 0.00 0.33 0.15 57 1009.9
20260505190508 67 271 4.0 10.0 0.00 0.33 0.15 59 1009.9
20260505190008 66 265 2.0 10.0 0.00 0.33 0.15 59 1010.1
20260505185504 66 268 2.0 6.0 0.00 0.33 0.15 60 1010.2
20260505185004 66 269 1.0 10.0 0.00 0.33 0.15 59 1010.1
20260505184528 66 269 3.0 10.0 0.00 0.33 0.15 60 1010.1
20260505184008 66 270 5.0 10.0 0.00 0.33 0.15 59 1010.2
20260505183511 66 172 1.0 4.0 0.00 0.33 0.15 59 1010.3
20260505183038 67 172 0.0 5.0 0.00 0.33 0.15 60 1010.3
20260505182507 66 172 1.0 5.0 0.00 0.33 0.15 62 1010.5
20260505182009 65 172 0.0 4.0 0.00 0.33 0.15 62 1010.4
20260505181525 65 176 1.0 5.0 0.00 0.33 0.15 62 1010.5
20260505181012 65 176 0.0 5.0 0.00 0.33 0.15 61 1010.4
20260505180509 65 177 2.0 5.0 0.00 0.33 0.15 64 1010.6
20260505180024 64 176 1.0 5.0 0.00 0.33 0.15 64 1010.7
20260505175503 64 177 3.0 5.0 0.00 0.33 0.15 63 1010.7
20260505175005 64 176 2.0 5.0 0.00 0.33 0.15 64 1010.7
20260505174512 64 176 0.0 3.0 0.00 0.33 0.15 64 1010.7
20260505174006 64 176 1.0 2.0 0.00 0.33 0.15 64 1010.7
20260505173506 64 177 0.0 2.0 0.00 0.33 0.15 64 1010.7
20260505173021 63 176 0.0 3.0 0.00 0.33 0.15 65 1010.8
20260505172509 63 176 0.0 4.0 0.00 0.33 0.15 64 1010.8
20260505172013 63 176 0.0 5.0 0.00 0.33 0.15 64 1010.7
20260505171526 63 177 2.0 4.0 0.00 0.33 0.15 64 1010.7
20260505171011 63 176 0.0 4.0 0.00 0.33 0.15 64 1010.7
20260505170512 63 176 1.0 3.0 0.00 0.33 0.15 65 1010.7
20260505170024 63 176 1.0 9.0 0.00 0.33 0.15 65 1010.7
20260505165508 63 176 1.0 9.0 0.00 0.33 0.15 65 1010.7
20260505165010 63 176 0.0 5.0 0.00 0.33 0.15 66 1010.6
20260505164527 63 176 2.0 4.0 0.00 0.33 0.15 67 1010.7
20260505164003 63 176 1.0 4.0 0.00 0.33 0.15 69 1010.8
20260505163509 62 176 0.0 5.0 0.00 0.33 0.15 69 1010.8
20260505163015 62 176 1.0 6.0 0.00 0.33 0.15 68 1010.7
20260505162509 61 176 3.0 5.0 0.00 0.33 0.15 70 1010.6
20260505162010 61 176 1.0 4.0 0.00 0.33 0.15 71 1010.7
20260505161526 61 176 1.0 5.0 0.00 0.33 0.15 71 1010.7
20260505161009 60 176 0.0 5.0 0.00 0.33 0.15 74 1010.8
20260505160509 60 176 0.0 4.0 0.00 0.33 0.15 74 1010.8
20260505153016 60 176 0.0 2.0 0.00 0.33 0.15 82 1010.4
20260505152507 59 176 1.0 2.0 0.00 0.33 0.15 82 1010.5
20260505152010 59 176 0.0 3.0 0.00 0.33 0.15 83 1010.5
20260505151517 59 176 0.0 4.0 0.00 0.33 0.15 85 1010.5
20260505151009 59 176 1.0 4.0 0.00 0.33 0.15 85 1010.5
20260505150507 59 176 0.0 4.0 0.00 0.33 0.15 85 1010.4
20260505140510 58 176 0.0 0.0 0.00 0.33 0.15 85 1010.2
20260505125007 57 131 0.0 1.0 0.00 0.33 0.15 88 1009.5
20260505124504 56 131 0.0 1.0 0.00 0.33 0.15 88 1009.4
20260505124005 57 131 0.0 1.0 0.00 0.33 0.15 88 1009.4
20260505123505 57 131 0.0 1.0 0.00 0.33 0.15 88 1009.3
20260505123010 56 131 0.0 2.0 0.00 0.33 0.15 88 1009.2
20260505122504 57 131 0.0 2.0 0.00 0.33 0.15 88 1009.1
20260505122006 57 131 0.0 2.0 0.00 0.33 0.15 88 1009.2
20260505121513 57 131 0.0 0.0 0.00 0.33 0.15 88 1009.3
20260505121004 56 131 0.0 0.0 0.00 0.33 0.15 88 1009.3
20260505120507 56 131 0.0 0.0 0.00 0.33 0.15 88 1009.1
20260505120018 56 131 0.0 2.0 0.01 0.33 0.15 88 1009.2
20260505115513 56 131 0.0 3.0 0.01 0.33 0.15 88 1009.1
20260505115007 56 131 0.0 3.0 0.01 0.33 0.15 88 1009.1
20260505114522 56 131 0.0 3.0 0.01 0.33 0.15 88 1008.9
20260505114009 56 131 0.0 3.0 0.02 0.33 0.15 88 1008.8
20260505113512 56 131 0.0 3.0 0.02 0.33 0.15 88 1008.9
20260505113007 56 131 0.0 2.0 0.02 0.33 0.15 88 1009.0
20260505112503 56 131 0.0 2.0 0.02 0.33 0.15 88 1009.3
20260505112003 56 131 0.0 2.0 0.02 0.33 0.15 88 1009.3
20260505111511 56 131 0.0 2.0 0.03 0.33 0.15 88 1009.1
20260505111004 56 131 0.0 2.0 0.04 0.33 0.15 88 1009.1
20260505110504 56 131 0.0 2.0 0.04 0.33 0.15 87 1009.1
20260505102003 57 139 6.0 13.0 0.02 0.31 0.13 87 1009.8
20260505101513 57 153 5.0 15.0 0.01 0.30 0.12 87 1010.0
20260505101004 57 156 4.0 15.0 0.00 0.29 0.11 87 1010.2
20260505100502 57 157 3.0 14.0 0.01 0.29 0.11 87 1010.2
20260505100004 57 153 6.0 17.0 0.01 0.29 0.11 87 1010.0
20260505095502 57 144 8.0 17.0 0.01 0.29 0.11 87 1010.0
20260505095001 57 154 4.0 11.0 0.01 0.29 0.11 87 1009.9
20260505094512 57 139 4.0 11.0 0.02 0.29 0.11 87 1009.8
20260505094002 57 147 2.0 9.0 0.02 0.29 0.11 87 1009.8
20260505093503 57 145 3.0 9.0 0.02 0.29 0.11 87 1009.9
20260505093021 57 137 1.0 6.0 0.02 0.29 0.11 87 1010.1
20260505092504 57 137 2.0 8.0 0.03 0.29 0.11 88 1010.1
20260505092003 57 136 2.0 7.0 0.03 0.29 0.11 88 1010.3
20260505091507 57 136 1.0 4.0 0.04 0.29 0.11 88 1010.4
20260505091006 57 136 0.0 2.0 0.04 0.29 0.11 88 1010.5
20260505090504 57 136 0.0 2.0 0.04 0.28 0.10 88 1010.3
20260505090010 57 136 0.0 3.0 0.05 0.28 0.10 88 1010.3
20260505085505 57 136 1.0 4.0 0.05 0.28 0.10 88 1010.5
20260505085003 57 136 1.0 8.0 0.05 0.28 0.10 88 1010.7
20260505084503 57 136 0.0 8.0 0.05 0.27 0.09 88 1010.8
20260505084003 57 136 3.0 9.0 0.05 0.27 0.09 88 1010.9
20260505083505 57 136 3.0 9.0 0.06 0.27 0.09 88 1011.3
20260505083005 57 133 3.0 10.0 0.06 0.27 0.09 88 1011.4
20260505082505 57 132 4.0 9.0 0.06 0.26 0.08 88 1011.4
20260505082003 57 132 4.0 11.0 0.07 0.26 0.08 88 1011.8
20260505081504 57 126 3.0 11.0 0.07 0.25 0.07 88 1011.7
20260505081004 57 119 4.0 10.0 0.07 0.25 0.07 88 1011.7
20260505080503 57 118 3.0 7.0 0.06 0.24 0.06 88 1012.0
20260505080006 57 118 2.0 6.0 0.05 0.23 0.05 88 1012.3
20260505075506 57 117 2.0 5.0 0.06 0.23 0.05 88 1012.4
20260505075008 57 117 1.0 5.0 0.06 0.23 0.05 88 1012.5
20260505074515 58 117 1.0 5.0 0.06 0.22 0.04 88 1012.4
20260505074005 58 117 0.0 4.0 0.06 0.22 0.04 88 1012.5
20260505073502 58 117 1.0 4.0 0.06 0.21 0.03 88 1012.5
20260505073004 58 117 2.0 3.0 0.06 0.21 0.03 88 1012.5
20260505072502 58 117 0.0 3.0 0.06 0.20 0.02 87 1012.7
20260505072003 58 117 0.0 0.0 0.05 0.19 0.01 87 1012.9
20260505071505 58 117 0.0 0.0 0.05 0.18 0.00 87 1012.8
20260505071003 58 117 0.0 0.0 0.05 0.18 0.00 87 1012.7
20260505070504 58 117 0.0 0.0 0.05 0.18 0.00 87 1012.4
20260505070007 58 117 0.0 0.0 0.05 0.18 0.00 86 1012.5
20260505065505 58 117 0.0 0.0 0.04 0.17 0.17 86 1012.5
20260505065004 58 117 0.0 0.0 0.05 0.17 0.17 86 1012.5
20260505064511 58 117 0.0 1.0 0.04 0.16 0.16 86 1012.5
20260505064005 58 117 0.0 2.0 0.04 0.16 0.16 85 1012.5
20260505063506 58 117 1.0 1.0 0.03 0.15 0.15 85 1012.5
20260505063016 58 117 0.0 0.0 0.04 0.15 0.15 84 1012.6
20260505062503 58 117 0.0 0.0 0.03 0.14 0.14 84 1012.7
20260505062002 58 117 0.0 0.0 0.03 0.14 0.14 84 1012.8
20260505061504 58 117 0.0 0.0 0.02 0.13 0.13 83 1012.8
20260505061002 58 117 0.0 2.0 0.02 0.13 0.13 84 1012.8
20260505060503 58 117 0.0 2.0 0.02 0.13 0.13 84 1012.9
20260505060003 58 117 0.0 2.0 0.02 0.13 0.13 84 1012.9
20260505055504 58 117 0.0 3.0 0.02 0.13 0.13 84 1012.7
20260505055004 58 117 0.0 3.0 0.01 0.12 0.12 84 1012.4
20260505054506 58 117 0.0 3.0 0.01 0.12 0.12 84 1012.5
20260505054004 57 117 0.0 2.0 0.01 0.12 0.12 83 1012.5
20260505053506 57 117 0.0 0.0 0.01 0.12 0.12 83 1012.4
20260505053015 57 117 0.0 0.0 0.00 0.11 0.11 83 1012.5
20260505052508 57 117 0.0 0.0 0.01 0.11 0.11 83 1012.5
20260505052007 57 117 0.0 2.0 0.01 0.11 0.11 83 1012.4
20260505051520 57 117 0.0 2.0 0.02 0.11 0.11 83 1012.4
20260505051003 57 117 0.0 2.0 0.03 0.11 0.11 83 1012.4
20260505050504 57 117 1.0 2.0 0.03 0.11 0.11 82 1012.3
20260505041529 58 117 0.0 2.0 0.03 0.09 0.09 75 1012.7
20260505041009 58 117 0.0 2.0 0.02 0.08 0.08 74 1012.6
20260505040508 59 117 0.0 4.0 0.02 0.08 0.08 72 1012.7
20260505040032 59 117 0.0 4.0 0.01 0.07 0.07 72 1012.7
20260505035507 59 117 2.0 3.0 0.02 0.07 0.07 71 1012.6
20260505035007 59 117 0.0 4.0 0.01 0.06 0.06 70 1012.5
20260505034504 59 117 1.0 4.0 0.01 0.06 0.06 69 1012.4
20260505034004 59 117 1.0 4.0 0.01 0.06 0.06 69 1012.4
20260505033504 59 117 2.0 4.0 0.01 0.06 0.06 71 1012.2
20260505033009 59 117 1.0 2.0 0.01 0.06 0.06 71 1011.9
20260505032505 59 117 0.0 5.0 0.01 0.06 0.06 70 1011.7
20260505032012 59 117 1.0 7.0 0.01 0.06 0.06 69 1011.8
20260505031526 58 117 3.0 7.0 0.01 0.06 0.06 68 1011.4
20260505031004 58 123 4.0 8.0 0.01 0.06 0.06 69 1011.3
20260505030508 58 128 3.0 8.0 0.02 0.06 0.06 68 1011.4
20260505030020 59 128 2.0 9.0 0.02 0.06 0.06 68 1011.6
20260505025507 59 128 4.0 9.0 0.01 0.05 0.05 68 1011.8
20260505025011 59 128 4.0 9.0 0.02 0.05 0.05 68 1011.8
20260505024506 59 129 5.0 9.0 0.02 0.05 0.05 68 1011.7
20260505024003 59 131 3.0 13.0 0.03 0.05 0.05 70 1011.7
20260505023503 58 128 4.0 15.0 0.04 0.05 0.05 71 1011.5
20260505023009 58 138 7.0 15.0 0.04 0.05 0.05 73 1011.6
20260505022505 58 140 7.0 11.0 0.05 0.05 0.05 73 1011.4
20260505022006 58 166 5.0 10.0 0.05 0.05 0.05 74 1011.5
20260505021510 59 174 5.0 7.0 0.05 0.05 0.05 73 1011.7
20260505021010 60 175 3.0 4.0 0.05 0.05 0.05 71 1011.9
20260505020507 60 176 2.0 4.0 0.04 0.04 0.04 70 1012.0
20260505020019 60 176 1.0 4.0 0.04 0.04 0.04 69 1012.3
20260505015505 61 176 1.0 2.0 0.04 0.04 0.04 67 1012.3
20260505015006 62 177 2.0 2.0 0.03 0.03 0.03 61 1012.3
20260505014528 62 177 0.0 2.0 0.03 0.03 0.03 60 1012.4